Crookston, MN

12:19 PM CST on January 22, 2017 (GMT -0600)
Crookston Municipal-Kirkwood

Weather History for KCKN - April, 2013

Change the Weather History Date:

Tuesday, April 2, 2013

  Actual Average Record
Temperature  
Mean Temperature 18 °F -  
Max Temperature 28 °F 43 °F 57 °F (2012)
Min Temperature 8 °F 25 °F 0 °F (2014)
Degree Days  
Heating Degree Days 47    
Moisture  
Dew Point 14 °F    
Average Humidity 82    
Maximum Humidity 100    
Minimum Humidity 59    
Precipitation  
Precipitation 0.00 in - - ()
Sea Level Pressure  
Sea Level Pressure 30.34 in    
Wind  
Wind Speed 3 mph (NW)    
Max Wind Speed 7 mph    
Max Gust Speed -    
Visibility 10 miles    
Events      
Averages and records for this station are not official NWS values.
T = Trace of Precipitation, MM = Missing Value Source: NWS Daily Summary

Daily Weather History Graph

Daily Weather History Graph

Search for Another Location

Airport or City:

Trip Planner

Search our weather history database for the weather conditions in past years. The results will help you decide how hot, cold, wet, or windy it might be!

Date:

Astronomy

Apr. 02, 2013 Rise Set
Actual Time 7:02 AM CDT 7:58 PM CDT
Civil Twilight 6:30 AM CDT 8:29 PM CDT
Nautical Twilight 5:53 AM CDT 9:07 PM CDT
Astronomical Twilight 5:13 AM CDT 9:47 PM CDT
Moon 2:22 AM CDT (4/2) 11:36 AM CDT (4/2)
Length of Visible Light 13h 58m
Length of Day
12h 56m
Waning Gibbous, 55% of the Moon is Illuminated
Apr 2
Waning Gibbous
Apr 2
Last Quarter
Apr 10
New
Apr 18
First Quarter
Apr 25
Full

Hourly Weather History & Observations

Time (CDT) Temp. Windchill Dew Point Humidity Pressure Visibility Wind Dir Wind Speed Gust Speed Precip Events Conditions
12:14 AM 12.2 °F 1.7 °F 10.4 °F 92% 30.26 in 10.0 mi West 6.9 mph - N/A   Clear
12:35 AM 12.2 °F 2.9 °F 10.4 °F 92% 30.26 in 10.0 mi WNW 5.8 mph - N/A   Clear
1:14 AM 12.2 °F 6.1 °F 10.4 °F 92% 30.26 in 10.0 mi West 3.5 mph - N/A   Clear
1:35 AM 12.2 °F - 10.4 °F 92% 30.27 in 10.0 mi Calm Calm - N/A   Clear
1:54 AM 12.2 °F - 12.2 °F 100% 30.27 in 10.0 mi Calm Calm - N/A   Clear
2:15 AM 12.2 °F 6.1 °F 10.4 °F 92% 30.27 in 10.0 mi West 3.5 mph - N/A   Clear
2:35 AM 10.4 °F 4.0 °F 10.4 °F 100% 30.27 in 10.0 mi West 3.5 mph - N/A   Clear
2:54 AM 12.2 °F - 10.4 °F 92% 30.27 in 10.0 mi Calm Calm - N/A   Clear
3:15 AM 10.4 °F - 8.6 °F 92% 30.27 in 10.0 mi Calm Calm - N/A   Clear
3:35 AM 10.4 °F - 8.6 °F 92% 30.28 in 10.0 mi Calm Calm - N/A   Clear
3:54 AM 8.6 °F - 6.8 °F 92% 30.28 in 10.0 mi Calm Calm - N/A   Clear
4:15 AM 10.4 °F 4.0 °F 8.6 °F 92% 30.28 in 10.0 mi West 3.5 mph - N/A   Clear
4:35 AM 10.4 °F 4.0 °F 8.6 °F 92% 30.29 in 10.0 mi West 3.5 mph - N/A   Clear
4:54 AM 10.4 °F 4.0 °F 8.6 °F 92% 30.29 in 10.0 mi NW 3.5 mph - N/A   Scattered Clouds
5:15 AM 10.4 °F 4.0 °F 8.6 °F 92% 30.29 in 10.0 mi NW 3.5 mph - N/A   Overcast
5:35 AM 10.4 °F 2.2 °F 8.6 °F 92% 30.30 in 10.0 mi NW 4.6 mph - N/A   Overcast
5:54 AM 10.4 °F -0.4 °F 10.4 °F 100% 30.30 in 10.0 mi NW 6.9 mph - N/A   Mostly Cloudy
6:15 AM 10.4 °F 2.2 °F 8.6 °F 92% 30.30 in 10.0 mi NW 4.6 mph - N/A   Scattered Clouds
6:34 AM 8.6 °F 2.0 °F 6.8 °F 92% 30.30 in 10.0 mi NW 3.5 mph - N/A   Clear
6:54 AM 8.6 °F 2.0 °F 6.8 °F 92% 30.30 in 10.0 mi WNW 3.5 mph - N/A   Clear
7:15 AM 8.6 °F 0.1 °F 6.8 °F 92% 30.31 in 10.0 mi WNW 4.6 mph - N/A   Clear
7:34 AM 8.6 °F 0.1 °F 6.8 °F 92% 30.31 in 10.0 mi WNW 4.6 mph - N/A   Clear
7:54 AM 8.6 °F - 6.8 °F 92% 30.33 in 10.0 mi Calm Calm - N/A   Clear
8:15 AM 10.4 °F 4.0 °F 8.6 °F 92% 30.33 in 10.0 mi NW 3.5 mph - N/A   Clear
8:34 AM 10.4 °F - 8.6 °F 92% 30.34 in 10.0 mi Calm Calm - N/A   Clear
8:54 AM 12.2 °F - 8.6 °F 85% 30.34 in 10.0 mi Calm Calm - N/A   Clear
9:34 AM 12.2 °F - 10.4 °F 92% 30.34 in 10.0 mi Calm Calm - N/A   Clear
9:55 AM 15.8 °F 8.6 °F 10.4 °F 79% 30.35 in 10.0 mi West 4.6 mph - N/A   Clear
10:15 AM 17.6 °F 12.3 °F 12.2 °F 79% 30.36 in 10.0 mi NNW 3.5 mph - N/A   Clear
10:34 AM 17.6 °F 10.7 °F 12.2 °F 79% 30.36 in 10.0 mi NW 4.6 mph - N/A   Clear
10:55 AM 19.4 °F 12.8 °F 12.2 °F 74% 30.36 in 10.0 mi WNW 4.6 mph - N/A   Clear
11:14 AM 19.4 °F - 12.2 °F 74% 30.37 in 10.0 mi Calm Calm - N/A   Clear
11:34 AM 21.2 °F 14.9 °F 14.0 °F 74% 30.37 in 10.0 mi North 4.6 mph - N/A   Clear
11:55 AM 21.2 °F 14.9 °F 15.8 °F 80% 30.38 in 10.0 mi North 4.6 mph - N/A   Clear
12:14 PM 21.2 °F - 15.8 °F 80% 30.38 in 10.0 mi Calm Calm - N/A   Clear
12:34 PM 21.2 °F 13.6 °F 15.8 °F 80% 30.38 in 10.0 mi WNW 5.8 mph - N/A   Clear
12:55 PM 23.0 °F 15.8 °F 17.6 °F 80% 30.38 in 10.0 mi NNW 5.8 mph - N/A   Clear
1:14 PM 24.8 °F 17.9 °F 19.4 °F 80% 30.38 in 10.0 mi NW 5.8 mph - N/A   Clear
1:34 PM 24.8 °F 19.1 °F 17.6 °F 74% 30.38 in 10.0 mi WNW 4.6 mph - N/A   Clear
1:55 PM 24.8 °F 19.1 °F 19.4 °F 80% 30.38 in 10.0 mi NNW 4.6 mph - N/A   Clear
2:14 PM 26.6 °F 21.2 °F 19.4 °F 74% 30.38 in 10.0 mi NNW 4.6 mph - N/A   Clear
2:34 PM 26.6 °F 20.0 °F 19.4 °F 74% 30.38 in 10.0 mi NW 5.8 mph - N/A   Clear
2:55 PM 26.6 °F 21.2 °F 21.2 °F 80% 30.38 in 10.0 mi NNW 4.6 mph - N/A   Clear
3:14 PM 26.6 °F 22.6 °F 19.4 °F 74% 30.38 in 10.0 mi NW 3.5 mph - N/A   Clear
3:34 PM 26.6 °F 22.6 °F 17.6 °F 69% 30.38 in 10.0 mi NNW 3.5 mph - N/A   Clear
3:55 PM 26.6 °F 21.2 °F 17.6 °F 69% 30.37 in 10.0 mi NNW 4.6 mph - N/A   Clear
4:14 PM 28.4 °F 23.3 °F 19.4 °F 69% 30.37 in 10.0 mi NNW 4.6 mph - N/A   Clear
4:35 PM 28.4 °F 22.2 °F 15.8 °F 59% 30.37 in 10.0 mi North 5.8 mph - N/A   Clear
4:48 PM 28.4 °F 23.3 °F 15.8 °F 59% 30.37 in 10.0 mi NNW 4.6 mph - N/A   Clear
5:20 PM 28.4 °F 22.2 °F 15.8 °F 59% 30.37 in 10.0 mi North 5.8 mph - N/A   Clear
5:35 PM 28.4 °F 22.2 °F 15.8 °F 59% 30.37 in 10.0 mi North 5.8 mph - N/A   Clear
5:54 PM 28.4 °F 23.3 °F 15.8 °F 59% 30.37 in 10.0 mi North 4.6 mph - N/A   Clear
6:15 PM 28.4 °F 24.6 °F 17.6 °F 64% 30.37 in 10.0 mi NNE 3.5 mph - N/A   Clear
6:34 PM 26.6 °F 21.2 °F 17.6 °F 69% 30.37 in 10.0 mi North 4.6 mph - N/A   Clear
6:55 PM 26.6 °F - 17.6 °F 69% 30.37 in 10.0 mi Calm Calm - N/A   Clear
7:14 PM 26.6 °F 22.6 °F 17.6 °F 69% 30.37 in 10.0 mi North 3.5 mph - N/A   Clear
7:34 PM 24.8 °F - 17.6 °F 74% 30.36 in 10.0 mi Calm Calm - N/A   Clear
7:55 PM 24.8 °F - 17.6 °F 74% 30.35 in 10.0 mi Calm Calm - N/A   Clear
8:14 PM 24.8 °F - 17.6 °F 74% 30.35 in 10.0 mi Calm Calm - N/A   Clear
8:34 PM 24.8 °F - 19.4 °F 80% 30.35 in 10.0 mi Calm Calm - N/A   Clear
8:55 PM 23.0 °F - 19.4 °F 86% 30.35 in 10.0 mi Calm Calm - N/A   Clear
9:14 PM 23.0 °F - 17.6 °F 80% 30.35 in 10.0 mi Calm Calm - N/A   Clear
9:34 PM 21.2 °F - 17.6 °F 86% 30.35 in 10.0 mi Calm Calm - N/A   Clear
9:55 PM 21.2 °F - 15.8 °F 80% 30.35 in 10.0 mi Calm Calm - N/A   Clear
10:14 PM 19.4 °F - 15.8 °F 86% 30.36 in 10.0 mi Calm Calm - N/A   Clear
10:35 PM 21.2 °F - 17.6 °F 86% 30.35 in 10.0 mi Calm Calm - N/A   Clear
10:55 PM 21.2 °F 14.9 °F 15.8 °F 80% 30.35 in 10.0 mi SE 4.6 mph - N/A   Clear
11:14 PM 19.4 °F 14.3 °F 15.8 °F 86% 30.35 in 10.0 mi SSE 3.5 mph - N/A   Clear
11:35 PM 17.6 °F 10.7 °F 15.8 °F 93% 30.34 in 10.0 mi SSE 4.6 mph - N/A   Clear
11:54 PM 17.6 °F 8.2 °F 15.8 °F 93% 30.34 in 10.0 mi SE 6.9 mph - N/A   Clear